sat.trackr.live / text

‹ back to catalog

STARLINK-36177

NORAD 66932 · 2025-286H

PAYLOAD ACTIVE UNKNOWN

§ Identity

Operator
Country
US
Launch date
2025-12-07
Launch site
AFWTR
Launch vehicle
Mass (kg)
RCS (m²)

Purposes: comms

External: N2YO · Heavens-Above · Gunter

§ Orbital elements

Epoch: 2026-05-24T23:43:43.396608Z

Period
93.85 min
Inclination
53.1607°
Eccentricity
0.0001211
Mean motion
15.34406453 rev/d
Perigee alt
461.9 km
Apogee alt
463.5 km
Semi-major
6,840.8 km
B*
6.2761e-4
RAAN
3.6883°
Arg perigee
71.0937°
Mean anomaly
289.0197°
Rev number
2,710

§ Raw data

STARLINK-361771 66932U 25286H   26144.98869672  .00020892  00000+0  62761-3 0  99962 66932  53.1607   3.6883 0001211  71.0937 289.0197 15.34406453 27101

JSON: /api/v1/satellites/66932 · /tle

For live sub-satellite position, see the globe view (requires WebGL).

§ Visibility from observer

Set your observer location to see the next 7 days of passes ≥ 10°. The values pass through the URL so the page stays shareable.

No JS? Fill the form by hand. The geolocation button needs JavaScript.